All
San Pedro Ranch Airport (Carrizo Springs, TX) 97TX Weather
There is no TAF data available at 97TX or any nearby airports.
There is no METAR data available at 97TX. Showing METAR data for KCZT (22 mi NE).
Recent CZT METAR history (no data for 97TX)
| Date | Time (CDT) | Flight Rules | Wind Dir. | Speed | Type | Height AGL (ft) | Visibility | Temp (°C) | Temp (°F) | Dew Point (°C) | Dew Point (°F) | Rel. Humid. | Pressure | Density Altitude | Remarks |
|---|---|---|---|---|---|---|---|---|---|---|---|---|---|---|---|
| 05-May | 07:55AM | VFR | 170° | 4 kt | 10 miles | 22° | 71° | 22° | 71° | 100% | 29.77 in Hg | 1,588 ft | |||
| 05-May | 07:15AM | VFR | 180° | 5 kt | 10 miles | 22° | 71° | 22° | 71° | 100% | 29.77 in Hg | 1,588 ft | |||
| 05-May | 06:55AM | VFR | 180° | 4 kt | 10 miles | 22° | 71° | 22° | 71° | 100% | 29.75 in Hg | 1,608 ft | |||
| 05-May | 06:15AM | VFR | 170° | 6 kt | 10 miles | 22° | 71° | 22° | 71° | 100% | 29.75 in Hg | 1,608 ft | |||
| 05-May | 05:55AM | VFR | 170° | 9 kt | 10 miles | 22° | 71° | 22° | 71° | 100% | 29.75 in Hg | 1,608 ft | |||
| 05-May | 05:35AM | VFR | 180° | 9 kt | 10 miles | 22° | 71° | 22° | 71° | 100% | 29.75 in Hg | 1,608 ft | |||
| 05-May | 05:15AM | VFR | 170° | 6 kt | 10 miles | 21° | 69° | 21° | 69° | 100% | 29.75 in Hg | 1,488 ft | |||
| 05-May | 04:55AM | VFR | 170° | 6 kt | 10 miles | 21° | 69° | 21° | 69° | 100% | 29.75 in Hg | 1,488 ft | |||
| 05-May | 04:35AM | VFR | 140° | 3 kt | 10 miles | 21° | 69° | 21° | 69° | 100% | 29.75 in Hg | 1,488 ft | |||
| 05-May | 04:15AM | VFR | 150° | 3 kt | 10 miles | 20° | 68° | 20° | 68° | 100% | 29.75 in Hg | 1,368 ft | |||
| 05-May | 03:55AM | VFR | 140° | 4 kt | 10 miles | 20° | 68° | 20° | 68° | 100% | 29.75 in Hg | 1,368 ft | |||
| 05-May | 03:15AM | VFR | 150° | 3 kt | 10 miles | 20° | 68° | 20° | 68° | 100% | 29.76 in Hg | 1,358 ft | |||
| 05-May | 02:55AM | VFR | 150° | 3 kt | 10 miles | 20° | 68° | 20° | 68° | 100% | 29.77 in Hg | 1,348 ft | |||
| 05-May | 02:15AM | VFR | 150° | 5 kt | 10 miles | 21° | 69° | 21° | 69° | 100% | 29.78 in Hg | 1,458 ft | |||
| 05-May | 01:55AM | VFR | 140° | 4 kt | 10 miles | 21° | 69° | 21° | 69° | 100% | 29.79 in Hg | 1,448 ft | |||
| 05-May | 01:35AM | VFR | 150° | 5 kt | 10 miles | 21° | 69° | 21° | 69° | 100% | 29.80 in Hg | 1,438 ft | |||
| 05-May | 01:15AM | VFR | 140° | 4 kt | 10 miles | 21° | 69° | 21° | 69° | 100% | 29.81 in Hg | 1,428 ft | |||
| 05-May | 12:15AM | VFR | 150° | 3 kt | 10 miles | 21° | 69° | 21° | 69° | 100% | 29.82 in Hg | 1,418 ft | |||
| 04-May | 11:55PM | VFR | 150° | 3 kt | 10 miles | 21° | 69° | 21° | 69° | 100% | 29.82 in Hg | 1,418 ft | |||
| 04-May | 11:15PM | VFR | Calm | 10 miles | 22° | 71° | 20° | 68° | 88% | 29.82 in Hg | 1,538 ft | ||||
| 04-May | 10:55PM | VFR | 130° | 3 kt | 10 miles |
22° | 71° | 19° | 66° | 83% | 29.81 in Hg | 1,548 ft | |||
| 04-May | 10:15PM | VFR | 150° | 3 kt | 7 miles |
22° | 71° | 18° | 64° | 78% | 29.81 in Hg | 1,548 ft | |||
| 04-May | 09:55PM | VFR | Calm | 10 miles | 23° | 73° | 18° | 64° | 73% | 29.81 in Hg | 1,668 ft | ||||
| 04-May | 09:35PM | VFR | 150° | 3 kt | 10 miles | 23° | 73° | 18° | 64° | 73% | 29.80 in Hg | 1,678 ft |
Login
| Your browser is unsupported. upgrade your browser |
